Flag for Canada Weather past 2 weeks in Iqaluit, Nunavut, Canada

Now
27 °F

Light snow. Partly sunny.


Feels Like: 14 °F
Forecast: 21 / 31 °F
Wind: 16 mph from Northwest

Location: Iqaluit

Current Time: May 29, 2015 at 8:56:04 PM

Latest Report: May 29, 2015 at 8:00 PM


Visibility: 10 mi

Pressure: 29.90 "Hg

Humidity: 80%

Dew point: 21 °F

Location of IqaluitLocation

Historic Weather in Iqaluit — Graph

°F

Iqaluit temperature yesterday

Maximum temperature yesterday: 36 °F (at 10:00 AM)
Minimum temperature yesterday: 27 °F (at 12:00 AM)
Average temperature yesterday: 31 °F

Past Weeks' High & Low Weather Summary

 TemperatureHumidityPressure
High39 °F (May 16, 3:00 PM)93% (May 17, 7:00 AM)29.99 "Hg (May 17, 7:00 AM)
Low16 °F (May 14, 7:00 PM)54% (May 21, 11:00 AM)29.40 "Hg (May 24, 2:00 PM)
Average27 °F77%29.73 "Hg
* Reported May 14 7:00 PM — May 29 7:00 PM, Iqaluit, Weather by CustomWeather, © 2015

Note: Actual official high and low records may vary slightly from our data, if they occured in-between our weather recording intervals... More about our weather records

Advertising

Iqaluit weather history for previous 24 hours

 ConditionsComfort  
Time TempWeatherWind HumidityBarometerVisibility
7:00 PM
Fri, May 29
28 °FSnow flurries. Mostly cloudy.22 mph74%29.90 "Hg20 mi
6:00 PM28 °FSnow flurries. Overcast.23 mph74%29.90 "Hg30 mi
5:00 PM28 °FSnow flurries. Cloudy.22 mph80%29.91 "Hg4 mi
4:59 PM27 °FSnow flurries. Overcast.24 mph86%29.90 "Hg2 mi
4:00 PM30 °FSnow flurries. Partly sunny.22 mph69%29.89 "Hg12 mi
3:00 PM28 °FLight snow. Partly sunny.26 mph74%29.89 "Hg10 mi
2:00 PM30 °FLight snow. Partly sunny.25 mph69%29.89 "Hg6 mi
1:00 PM30 °FScattered showers. Partly sunny.28 mph69%29.88 "Hg30 mi
12:00 PM30 °FScattered showers. Partly sunny.26 mph69%29.87 "Hg30 mi
11:00 AM30 °FScattered showers. Partly sunny.25 mph75%29.87 "Hg30 mi
10:00 AM28 °FLight snow. Partly sunny.24 mph80%29.87 "Hg5 mi
9:49 AM28 °FLight snow. Mostly cloudy.25 mph80%29.86 "Hg3 mi
9:00 AM28 °FPartly sunny.23 mph74%29.86 "Hg30 mi
8:00 AM28 °FLight snow. Partly sunny.30 mph80%29.85 "Hg15 mi
7:00 AM28 °FLight snow. Broken clouds.24 mph80%29.85 "Hg15 mi
6:00 AM27 °FPartly sunny.25 mph86%29.84 "Hg20 mi
5:00 AM27 °FLight snow. More clouds than sun.16 mph86%29.83 "Hg6 mi
4:00 AM27 °FPartly sunny.17 mph74%29.85 "Hg30 mi
3:00 AM25 °FOvercast.21 mph80%29.84 "Hg25 mi
2:00 AM25 °FPartly cloudy.22 mph86%29.83 "Hg25 mi
1:00 AM27 °FLight snow. Partly cloudy.25 mph86%29.82 "Hg6 mi
12:00 AM28 °FLight snow. Overcast.22 mph86%29.83 "Hg4 mi
11:00 PM
Thu, May 28
28 °FLight snow. Cloudy.14 mph80%29.85 "Hg5 mi
10:52 PM28 °FLight snow. Cloudy.15 mph80%29.85 "Hg6 mi
10:00 PM28 °FLight freezing rain. Mostly cloudy.18 mph86%29.87 "Hg20 mi
9:53 PM28 °FLight freezing rain. Mostly cloudy.15 mph80%29.87 "Hg20 mi
9:00 PM28 °FMostly cloudy.22 mph80%29.88 "Hg30 mi
8:00 PM28 °FMostly cloudy.25 mph86%29.87 "Hg30 mi
Weather by CustomWeather, © 2015

See weather overviewHow to use our weather pages